Tracking 17844 objects as of 24-August-2016
HD Live streaming from Space Station
objects crossing your sky now

INTELSAT 501

Track INTELSAT 501 now!
INTELSAT 501 is classified as:


NORAD ID: 12474
Int'l Code: 1981-050A
Perigee: 36,157.0 km
Apogee: 36,235.3 km
Inclination: 15.2 °
Period: 1,456.7 minutes
Semi major axis: 42567 km
RCS: 3.981 m2 (large)
Launch date: May 23, 1981
Source: International Telecommunications Satellite Organization (ITSO)
Launch site: AIR FORCE EASTERN TEST RANGE (AFETR)
Your satellite tracking list
Your tracking list is empty





NASA's NSSDC Master Catalog

Two Line Element Set (TLE):
1 12474U 81050A   16235.00928551 -.00000031 +00000-0 +00000-0 0  9994
2 12474 015.1889 355.4867 0009199 189.1601 187.1019 00.98853228102223
Source of the keplerian elements: AFSPC

N2YO: 498